28. Mai 2022

Uhrzeit Code Wetter Temp. Sichtweite Wolkendecke Wind METAR/SPECI
5:25 pm
V
54 °F 6¼ mi+ - 320° 320° 18 kt METAR EHLW 281525Z AUTO 32018KT 280V350 9999 FEW019CB SCT051 12/07 Q1020 RERA BLU
5:14 pm
M
54 °F 6¼ mi+ 2.700 ft 310° 310° 9 - 21 kt METAR EHLW 281514Z AUTO 31009G21KT 260V350 9999 FEW015CB BKN027 BKN035 12/09 Q1020 BLU
5:06 pm
M
50 °F 6¼ mi+ 2.600 ft 320° 320° 10 kt METAR EHLW 281506Z AUTO 32010KT 270V350 9999 -SHRA SCT022 BKN026 OVC031 10/08 Q1020 WHT
4:59 pm
M
50 °F 6¼ mi+ 2.900 ft 320° 320° 13 kt METAR EHLW 281459Z AUTO 32013KT 270V360 9999 +SHRA FEW022 SCT025 BKN029 10/07 Q1020 BLU
4:55 pm
M
50 °F 3¾ mi 2.500 ft 320° 320° 15 kt METAR EHLW 281455Z AUTO 32015KT 290V360 6000 SHRA SCT022 BKN025 BKN029 10/07 Q1020 WHT
4:41 pm
M
54 °F 6¼ mi+ 2.700 ft 310° 310° 16 kt METAR EHLW 281441Z AUTO 31016KT 270V340 9999 SCT023 BKN027 BKN031 12/07 Q1020 WHT
4:34 pm
V
55 °F 6¼ mi+ - 310° 310° 18 kt METAR EHLW 281434Z AUTO 31018KT 270V340 9999 SCT025 SCT029 13/07 Q1020 BLU
4:29 pm
V
55 °F 6¼ mi+ 3.400 ft 310° 310° 17 kt METAR EHLW 281429Z AUTO 31017KT 280V010 9999 SCT024 SCT028 BKN034 13/07 Q1020 WHT
4:25 pm
V
55 °F 6¼ mi+ 5.700 ft 310° 310° 16 kt METAR EHLW 281425Z AUTO 31016KT 280V010 9999 SCT025 SCT036 BKN057 13/06 Q1020 BLU
3:55 pm
M
55 °F 6¼ mi+ 2.700 ft 320° 320° 17 kt METAR EHLW 281355Z AUTO 32017KT 270V360 9999 BKN027 BKN037 OVC042 13/06 Q1020 BLU
3:25 pm
V
55 °F 6¼ mi+ 4.200 ft 320° 320° 16 kt METAR EHLW 281325Z AUTO 32016KT 270V350 9999 FEW031 SCT037 BKN042 13/05 Q1020 BLU
2:55 pm
V
57 °F 6¼ mi+ 3.700 ft 320° 320° 16 kt METAR EHLW 281255Z AUTO 32016KT 260V340 9999 SCT030 BKN037 BKN043 14/07 Q1020 BLU
2:25 pm
V
55 °F 6¼ mi+ - 320° 320° 18 kt METAR EHLW 281225Z AUTO 32018KT 270V350 9999 FEW031 13/06 Q1020 BLU
2:09 pm
V
54 °F 6¼ mi+ 3.300 ft 320° 320° 18 kt METAR EHLW 281209Z AUTO 32018KT 280V020 9999 SCT029 BKN033 BKN038 12/05 Q1020 BLU
1:55 pm
V
55 °F 6¼ mi+ 3.200 ft 310° 310° 16 kt METAR EHLW 281155Z AUTO 31016KT 280V360 9999 SCT025 SCT028 BKN032 13/07 Q1021 BLU
1:33 pm
V
54 °F 6¼ mi+ 3.700 ft 300° 300° 15 kt METAR EHLW 281133Z AUTO 30015KT 270V340 9999 -RA FEW022 SCT025 BKN037 12/07 Q1021 BLU
1:29 pm
M
54 °F 3⅛ mi 2.500 ft 310° 310° 17 kt METAR EHLW 281129Z AUTO 31017KT 280V350 5000 -RA FEW022 BKN025 BKN030 12/08 Q1021 WHT
1:25 pm
V
54 °F 6¼ mi+ 3.600 ft 320° 320° 17 kt METAR EHLW 281125Z AUTO 32017KT 270V360 9999 SCT025 SCT028 BKN036 12/07 Q1021 BLU
1:09 pm
V
54 °F 6¼ mi+ 4.300 ft 320° 320° 18 kt METAR EHLW 281109Z AUTO 32018KT 280V360 9999 FEW024 SCT030 BKN043 12/06 Q1021 BLU
1:00 pm
V
54 °F 6¼ mi+ 3.500 ft 310° 310° 19 kt METAR EHLW 281100Z AUTO 31019KT 280V360 9999 SCT024 SCT029 BKN035 12/06 Q1021 WHT
12:55 pm
V
54 °F 6¼ mi+ 3.200 ft 320° 320° 18 kt METAR EHLW 281055Z AUTO 32018KT 280V360 9999 -RA SCT025 BKN032 BKN037 12/06 Q1021 BLU
12:25 pm
V
55 °F 6¼ mi+ 4.200 ft 320° 320° 18 kt METAR EHLW 281025Z AUTO 32018KT 270V350 9999 FEW026 SCT030 BKN042 13/06 Q1021 BLU
11:55 am
V
57 °F 6¼ mi+ 4.900 ft 320° 320° 17 kt METAR EHLW 280955Z AUTO 32017KT 290V010 9999 SCT027 SCT044 BKN049 14/07 Q1021 BLU
11:25 am
V
55 °F 6¼ mi+ 4.800 ft 320° 320° 17 kt METAR EHLW 280925Z AUTO 32017KT 270V010 9999 FEW026 BKN048 OVC052 13/06 Q1021 BLU
10:55 am
M
55 °F 6¼ mi+ 2.900 ft 320° 320° 16 kt METAR EHLW 280855Z AUTO 32016KT 290V020 9999 SCT025 BKN029 BKN034 13/07 Q1020 BLU
10:32 am
M
55 °F 6¼ mi+ 2.800 ft 310° 310° 19 kt METAR EHLW 280832Z AUTO 31019KT 280V010 9999 SCT025 BKN028 BKN036 13/06 Q1020 BLU
10:26 am
V
55 °F 6¼ mi+ - 320° 320° 17 kt METAR EHLW 280826Z AUTO 32017KT 280V010 9999 SCT024 13/07 Q1020 WHT
10:25 am
V
55 °F 6¼ mi+ - 320° 320° 16 kt METAR EHLW 280825Z AUTO 32016KT 280V010 9999 FEW024 13/07 Q1020 BLU
10:08 am
V
55 °F 6¼ mi+ 4.800 ft 320° 320° 19 kt METAR EHLW 280808Z AUTO 32019KT 280V360 9999 FEW024 BKN048 13/07 Q1020 BLU
9:56 am
M
55 °F 6¼ mi+ 2.400 ft 310° 310° 19 kt METAR EHLW 280756Z AUTO 31019KT 290V010 9999 BKN024 BKN031 BKN046 13/07 Q1020 WHT
9:55 am
V
55 °F 6¼ mi+ 5.000 ft 320° 320° 18 kt METAR EHLW 280755Z AUTO 32018KT 280V010 9999 FEW024 SCT029 BKN050 13/07 Q1020 BLU
9:35 am
V
54 °F 6¼ mi+ 4.700 ft 310° 310° 18 kt METAR EHLW 280735Z AUTO 31018KT 280V360 9999 FEW023 SCT029 BKN047 12/07 Q1020 BLU
9:25 am
V
54 °F 6¼ mi+ 5.000 ft 320° 320° 17 kt METAR EHLW 280725Z AUTO 32017KT 280V360 9999 SCT024 BKN050 12/07 Q1020 WHT
9:21 am
V
54 °F 6¼ mi+ 4.900 ft 320° 320° 17 kt METAR EHLW 280721Z AUTO 32017KT 290V360 9999 FEW024 BKN049 12/06 Q1020 BLU
9:12 am
V
54 °F 6¼ mi+ 4.600 ft 310° 310° 18 kt METAR EHLW 280712Z AUTO 31018KT 290V360 9999 FEW023 SCT027 BKN046 12/07 Q1020 BLU
8:55 am
V
54 °F 6¼ mi+ 4.600 ft 310° 310° 18 kt METAR EHLW 280655Z AUTO 31018KT 280V350 9999 SCT023 SCT027 OVC046 12/06 Q1020 WHT
8:25 am
V
54 °F 6¼ mi+ 4.100 ft 310° 310° 15 kt METAR EHLW 280625Z AUTO 31015KT 260V350 9999 FEW025 SCT030 BKN041 12/07 Q1020 BLU
8:12 am
V
52 °F 6¼ mi+ 4.100 ft 320° 320° 18 kt METAR EHLW 280612Z AUTO 32018KT 270V350 9999 FEW024 SCT027 BKN041 11/06 Q1020 BLU
8:00 am
M
54 °F 6¼ mi+ 2.800 ft 310° 310° 17 kt METAR EHLW 280600Z AUTO 31017KT 280V360 9999 SCT023 BKN028 BKN032 12/06 Q1020 WHT
7:57 am
M
52 °F 6¼ mi+ 2.700 ft 310° 310° 16 kt METAR EHLW 280557Z AUTO 31016KT 270V360 9999 FEW023 BKN027 BKN030 11/06 Q1020 BLU
7:55 am
M
52 °F 6¼ mi+ 2.800 ft 310° 310° 15 kt METAR EHLW 280555Z AUTO 31015KT 270V360 9999 SCT024 BKN028 OVC032 11/06 Q1020 WHT
7:25 am
V
52 °F 6¼ mi+ 3.700 ft 310° 310° 16 kt METAR EHLW 280525Z AUTO 31016KT 280V350 9999 FEW028 SCT032 BKN037 11/06 Q1020 BLU
6:55 am
V
52 °F 6¼ mi+ 4.300 ft 310° 310° 16 kt METAR EHLW 280455Z AUTO 31016KT 270V350 9999 FEW025 BKN043 OVC047 11/06 Q1019 BLU
6:25 am
V
50 °F 6¼ mi+ - 320° 320° 14 kt METAR EHLW 280425Z AUTO 32014KT 270V360 9999 FEW028 10/05 Q1019 BLU
5:56 am
V
52 °F 6¼ mi+ 3.200 ft 320° 320° 14 kt METAR EHLW 280356Z AUTO 32014KT 290V350 9999 FEW022 SCT028 BKN032 11/06 Q1019 BLU
5:55 am
M
52 °F 6¼ mi+ 2.200 ft 320° 320° 14 kt METAR EHLW 280355Z AUTO 32014KT 290V360 9999 BKN022 BKN030 BKN046 11/06 Q1019 WHT
5:25 am
V
50 °F 6¼ mi+ 4.700 ft 310° 310° 14 kt METAR EHLW 280325Z AUTO 31014KT 280V350 9999 FEW024 SCT029 BKN047 10/06 Q1019 BLU
4:55 am
V
50 °F 6¼ mi+ - 320° 320° 16 kt METAR EHLW 280255Z AUTO 32016KT 280V350 9999 FEW027 10/06 Q1019 BLU
4:25 am
V
50 °F 6¼ mi+ 4.800 ft 310° 310° 14 kt METAR EHLW 280225Z AUTO 31014KT 280V350 9999 FEW026 SCT043 BKN048 10/06 Q1019 BLU
4:12 am
V
52 °F 6¼ mi+ 3.800 ft 310° 310° 15 kt METAR EHLW 280212Z AUTO 31015KT 280V360 9999 SCT024 SCT034 BKN038 11/06 Q1019 WHT
3:55 am
V
50 °F 6¼ mi+ 3.500 ft 310° 310° 14 kt METAR EHLW 280155Z AUTO 31014KT 270V350 9999 SCT026 BKN035 10/05 Q1019 BLU
3:25 am
V
52 °F 6¼ mi+ - 320° 320° 17 kt METAR EHLW 280125Z AUTO 32017KT 280V350 9999 FEW024 SCT028 11/05 Q1019 BLU
3:11 am
V
52 °F 6¼ mi+ 3.600 ft 310° 310° 16 kt METAR EHLW 280111Z AUTO 31016KT 280V340 9999 SCT023 SCT028 BKN036 11/06 Q1019 WHT
2:55 am
V
52 °F 6¼ mi+ - 310° 310° 14 kt METAR EHLW 280055Z AUTO 31014KT 280V350 9999 SCT025 SCT030 11/06 Q1019 BLU
2:25 am
V
52 °F 6¼ mi+ - 310° 310° 16 kt METAR EHLW 280025Z AUTO 31016KT 270V350 9999 FEW026 11/06 Q1019 BLU
1:55 am
V
52 °F 6¼ mi+ - 320° 320° 17 kt METAR EHLW 272355Z AUTO 32017KT 280V350 9999 FEW018CB SCT028 11/07 Q1019 BLU
1:43 am
V
52 °F 6¼ mi+ 3.900 ft 320° 320° 16 kt METAR EHLW 272343Z AUTO 32016KT 280V350 9999 FEW018CB SCT026 BKN039 11/07 Q1019 BLU
1:25 am
M
54 °F 6¼ mi+ 2.500 ft 300° 300° 17 kt METAR EHLW 272325Z AUTO 30017KT 270V350 9999 FEW017CB SCT022 BKN025 BKN031 12/08 Q1019 WHT
1:09 am
V
54 °F 6¼ mi+ 7.700 ft 290° 290° 17 kt METAR EHLW 272309Z AUTO 29017KT 260V320 9999 FEW018CB SCT024 BKN077 12/07 Q1019 WHT
1:00 am
V
54 °F 6¼ mi+ 9.000 ft 290° 290° 17 kt METAR EHLW 272300Z AUTO 29017KT 250V320 9999 FEW018CB SCT029 BKN090 12/08 Q1019 BLU
12:55 am
V
54 °F 6¼ mi+ 3.000 ft 290° 290° 17 kt METAR EHLW 272255Z AUTO 29017KT 240V320 9999 FEW018CB SCT020 BKN030 12/07 Q1019 WHT
12:25 am
V
54 °F 6¼ mi+ 3.900 ft 290° 290° 15 kt METAR EHLW 272225Z AUTO 29015KT 250V310 9999 FEW025 SCT028 BKN039 12/07 Q1019 BLU

27. Mai 2022

Uhrzeit Code Wetter Temp. Sichtweite Wolkendecke Wind METAR/SPECI
11:55 pm
M
54 °F 6¼ mi+ 2.900 ft 290° 290° 15 kt METAR EHLW 272155Z AUTO 29015KT 9999 FEW025 BKN029 BKN032 12/07 Q1019 BLU
11:25 pm
M
54 °F 6¼ mi+ 2.900 ft 290° 290° 13 kt METAR EHLW 272125Z AUTO 29013KT 250V320 9999 FEW025 BKN029 BKN034 12/07 Q1020 BLU
10:55 pm
V
54 °F 6¼ mi+ - 280° 280° 12 kt METAR EHLW 272055Z AUTO 28012KT 250V310 9999 FEW071 12/07 Q1020 BLU
10:25 pm
V
54 °F 6¼ mi+ - 290° 290° 13 kt METAR EHLW 272025Z AUTO 29013KT 250V340 9999 SCT026 SCT030 12/07 Q1020 BLU
9:55 pm
V
54 °F 6¼ mi+ - 290° 290° 13 kt METAR EHLW 271955Z AUTO 29013KT 260V320 9999 FEW030 12/07 Q1020 BLU
9:25 pm
V
54 °F 6¼ mi+ - 290° 290° 14 kt METAR EHLW 271925Z AUTO 29014KT 250V310 9999 NCD 12/07 Q1020 BLU
8:55 pm
V
55 °F 6¼ mi+ - 300° 300° 15 kt METAR EHLW 271855Z AUTO 30015KT 260V320 9999 FEW028 13/07 Q1020 BLU
8:25 pm
V
55 °F 6¼ mi+ - 300° 300° 17 kt METAR EHLW 271825Z AUTO 30017KT 250V330 9999 NCD 13/07 Q1020 BLU
7:55 pm
V
55 °F 6¼ mi+ - 300° 300° 17 kt METAR EHLW 271755Z AUTO 30017KT 260V320 9999 FEW028 13/07 Q1020 BLU
7:25 pm
V
55 °F 6¼ mi+ 3.000 ft 300° 300° 18 kt METAR EHLW 271725Z AUTO 30018KT 260V340 9999 BKN030 BKN035 13/06 Q1020 BLU
6:55 pm
V
55 °F 6¼ mi+ 3.300 ft 300° 300° 18 kt METAR EHLW 271655Z AUTO 30018KT 260V330 9999 SCT029 BKN033 BKN039 13/06 Q1020 BLU
6:25 pm
V
55 °F 6¼ mi+ 3.400 ft 300° 300° 18 kt METAR EHLW 271625Z AUTO 30018KT 260V320 9999 SCT025 BKN034 BKN039 13/07 Q1020 BLU
5:55 pm
V
57 °F 6¼ mi+ 3.500 ft 300° 300° 19 kt METAR EHLW 271555Z AUTO 30019KT 250V320 9999 SCT026 SCT030 BKN035 14/07 Q1020 BLU
5:26 pm
V
57 °F 6¼ mi+ 3.000 ft 300° 300° 20 - 30 kt METAR EHLW 271526Z AUTO 30020G30KT 260V330 9999 SCT026 BKN030 BKN036 14/07 Q1020 BLU
5:18 pm
M
55 °F 6¼ mi+ 2.800 ft 290° 290° 19 kt METAR EHLW 271518Z AUTO 29019KT 250V320 9999 SCT024 BKN028 BKN034 13/07 Q1020 WHT
4:55 pm
V
57 °F 6¼ mi+ 3.800 ft 290° 290° 20 kt METAR EHLW 271455Z AUTO 29020KT 250V330 9999 SCT026 SCT032 BKN038 14/07 Q1020 BLU
4:40 pm
M
57 °F 6¼ mi+ 2.800 ft 300° 300° 18 kt METAR EHLW 271440Z AUTO 30018KT 260V330 9999 SCT024 BKN028 BKN035 14/08 Q1020 WHT
4:34 pm
V
57 °F 6¼ mi+ 3.600 ft 290° 290° 18 kt METAR EHLW 271434Z AUTO 29018KT 250V320 9999 SCT026 SCT030 BKN036 14/07 Q1020 BLU
4:29 pm
V
57 °F 6¼ mi+ 3.600 ft 280° 280° 20 kt METAR EHLW 271429Z AUTO 28020KT 260V320 9999 SCT024 SCT028 BKN036 14/07 Q1020 WHT
4:25 pm
V
57 °F 6¼ mi+ 4.200 ft 290° 290° 21 kt METAR EHLW 271425Z AUTO 29021KT 260V320 9999 FEW026 BKN042 14/08 Q1020 BLU
4:02 pm
V
57 °F 6¼ mi+ 3.100 ft 290° 290° 17 kt METAR EHLW 271402Z AUTO 29017KT 240V330 9999 SCT024 SCT028 BKN031 14/08 Q1020 WHT
3:55 pm
V
55 °F 6¼ mi+ 3.900 ft 280° 280° 19 kt METAR EHLW 271355Z AUTO 28019KT 240V330 9999 FEW024 SCT031 BKN039 13/07 Q1020 BLU
3:32 pm
V
55 °F 6¼ mi+ 3.900 ft 290° 290° 18 kt METAR EHLW 271332Z AUTO 29018KT 240V310 9999 FEW024 SCT034 BKN039 13/07 Q1020 BLU
3:25 pm
M
57 °F 6¼ mi+ 2.300 ft 290° 290° 19 kt METAR EHLW 271325Z AUTO 29019KT 240V310 9999 BKN023 BKN032 BKN039 14/08 Q1020 WHT
3:03 pm
V
55 °F 6¼ mi+ 3.900 ft 280° 280° 20 kt METAR EHLW 271303Z AUTO 28020KT 250V320 9999 SCT024 SCT033 BKN039 13/07 Q1020 WHT
2:55 pm
V
57 °F 6¼ mi+ - 280° 280° 18 kt METAR EHLW 271255Z AUTO 28018KT 250V320 9999 FEW027 SCT037 14/07 Q1020 BLU
2:25 pm
M
55 °F 6¼ mi+ 2.600 ft 290° 290° 19 kt METAR EHLW 271225Z AUTO 29019KT 250V330 9999 SCT023 BKN026 BKN033 13/08 Q1019 WHT
2:00 pm
V
55 °F 6¼ mi+ 3.000 ft 290° 290° 19 kt METAR EHLW 271200Z AUTO 29019KT 250V320 9999 SCT025 BKN030 OVC036 13/07 Q1019 BLU
1:55 pm
M
55 °F 6¼ mi+ 2.900 ft 280° 280° 18 kt METAR EHLW 271155Z AUTO 28018KT 250V310 9999 SCT024 BKN029 BKN038 13/07 Q1019 WHT
1:25 pm
M
55 °F 6¼ mi+ 2.900 ft 290° 290° 18 kt METAR EHLW 271125Z AUTO 29018KT 240V320 9999 SCT025 BKN029 BKN034 13/07 Q1019 BLU
12:55 pm
V
55 °F 6¼ mi+ 3.500 ft 290° 290° 19 kt METAR EHLW 271055Z AUTO 29019KT 250V310 9999 FEW027 SCT031 BKN035 13/06 Q1019 BLU
12:25 pm
V
55 °F 6¼ mi+ 3.800 ft 280° 280° 18 kt METAR EHLW 271025Z AUTO 28018KT 260V320 9999 SCT028 BKN038 BKN043 13/06 Q1019 BLU
11:55 am
M
55 °F 6¼ mi+ 2.900 ft 290° 290° 18 kt METAR EHLW 270955Z AUTO 29018KT 240V310 9999 BKN029 BKN032 BKN037 13/06 Q1019 BLU
11:25 am
M
55 °F 6¼ mi+ 2.900 ft 290° 290° 17 kt METAR EHLW 270925Z AUTO 29017KT 240V320 9999 BKN029 BKN034 13/06 Q1019 BLU
10:55 am
V
55 °F 6¼ mi+ - 280° 280° 17 kt METAR EHLW 270855Z AUTO 28017KT 240V330 9999 FEW029 SCT034 13/06 Q1018 BLU
10:25 am
V
55 °F 6¼ mi+ - 280° 280° 18 kt METAR EHLW 270825Z AUTO 28018KT 240V330 9999 FEW031 SCT038 13/06 Q1018 BLU
9:55 am
V
55 °F 6¼ mi+ - 290° 290° 15 kt METAR EHLW 270755Z AUTO 29015KT 260V320 9999 SCT028 SCT032 13/06 Q1018 BLU
9:25 am
V
55 °F 6¼ mi+ - 290° 290° 16 kt METAR EHLW 270725Z AUTO 29016KT 260V320 9999 FEW028 13/06 Q1018 BLU
8:55 am
V
55 °F 6¼ mi+ - 290° 290° 16 kt METAR EHLW 270655Z AUTO 29016KT 260V320 9999 NCD 13/06 Q1018 BLU
8:25 am
V
55 °F 6¼ mi+ - 290° 290° 14 kt METAR EHLW 270625Z AUTO 29014KT 260V330 9999 FEW037 13/06 Q1017 BLU
7:55 am
V
54 °F 6¼ mi+ 5.300 ft 300° 300° 14 kt METAR EHLW 270555Z AUTO 30014KT 260V330 9999 BKN053 12/05 Q1017 BLU
7:25 am
V
54 °F 6¼ mi+ 5.000 ft 290° 290° 13 kt METAR EHLW 270525Z AUTO 29013KT 260V320 9999 FEW029 SCT043 BKN050 12/06 Q1017 BLU
6:55 am
V
54 °F 6¼ mi+ 4.800 ft 290° 290° 11 kt METAR EHLW 270455Z AUTO 29011KT 240V310 9999 FEW031 SCT044 BKN048 12/07 Q1017 BLU
6:25 am
V
52 °F 6¼ mi+ 5.400 ft 280° 280° 6 kt METAR EHLW 270425Z AUTO 28006KT 250V310 9999 FEW041 BKN054 OVC260 11/07 Q1017 BLU
5:55 am
V
52 °F 6¼ mi+ 5.200 ft 290° 290° 6 kt METAR EHLW 270355Z AUTO 29006KT 250V320 9999 FEW034 BKN052 OVC058 11/07 Q1017 BLU
5:25 am
V
52 °F 6¼ mi+ 26.000 ft 290° 290° 8 kt METAR EHLW 270325Z AUTO 29008KT 240V310 9999 OVC260 11/08 Q1017 BLU
4:55 am
V
52 °F 6¼ mi+ 5.300 ft 260° 260° 6 kt METAR EHLW 270255Z AUTO 26006KT 9999 FEW041 BKN053 BKN066 11/09 Q1017 BLU
4:25 am
V
52 °F 6¼ mi+ 27.000 ft 260° 260° 5 kt METAR EHLW 270225Z AUTO 26005KT 240V300 9999 SCT053 OVC270 11/08 Q1017 BLU
3:55 am
V
52 °F 6¼ mi+ 4.900 ft 290° 290° 5 kt METAR EHLW 270155Z AUTO 29005KT 9999 BKN049 OVC054 11/09 Q1017 BLU
3:25 am
V
54 °F 6¼ mi+ 5.300 ft 290° 290° 7 kt METAR EHLW 270125Z AUTO 29007KT 260V320 9999 BKN053 OVC058 12/09 Q1017 BLU
2:55 am
V
55 °F 6¼ mi+ 26.000 ft 300° 300° 10 kt METAR EHLW 270055Z AUTO 30010KT 260V330 9999 SCT054 OVC260 13/10 Q1017 BLU
2:25 am
V
55 °F 6¼ mi+ 4.800 ft 290° 290° 8 kt METAR EHLW 270025Z AUTO 29008KT 250V320 9999 BKN048 BKN053 BKN290 13/11 Q1017 BLU
1:55 am
V
57 °F 6¼ mi+ 10.000 ft 280° 280° 9 kt METAR EHLW 262355Z AUTO 28009KT 250V320 9999 FEW014 BKN100 BKN280 14/12 Q1016 BLU
1:35 am
M
57 °F 6¼ mi+ 1.400 ft 280° 280° 10 kt METAR EHLW 262335Z AUTO 28010KT 240V300 9999 FEW012 BKN014 BKN017 14/12 Q1016 GRN
1:31 am
M
57 °F 6¼ mi+ 1.500 ft 270° 270° 10 kt METAR EHLW 262331Z AUTO 27010KT 240V300 9999 FEW012 BKN015 BKN018 14/12 Q1016 WHT
1:25 am
M
57 °F 6¼ mi+ 1.500 ft 270° 270° 12 kt METAR EHLW 262325Z AUTO 27012KT 240V300 9999 FEW012 BKN015 BKN019 14/12 Q1016 WHT
1:00 am
M
57 °F 6¼ mi+ 1.500 ft 260° 260° 15 kt METAR EHLW 262300Z AUTO 26015KT 230V300 9999 FEW011 BKN015CB BKN047 14/12 Q1016 WHT
12:59 am
M
57 °F 6¼ mi+ 1.600 ft 260° 260° 16 kt METAR EHLW 262259Z AUTO 26016KT 230V290 9999 FEW011 SCT014 FEW015CB BKN016 14/12 Q1016 GRN
12:55 am
M
57 °F 6¼ mi+ 1.500 ft 260° 260° 16 kt METAR EHLW 262255Z AUTO 26016KT 230V290 9999 FEW012 BKN015CB BKN019 14/12 Q1016 REDZ WHT
12:38 am
M
57 °F 6¼ mi+ 1.400 ft 260° 260° 14 kt METAR EHLW 262238Z AUTO 26014KT 230V290 9999 -RA FEW009 SCT012 BKN014 FEW015CB 14/13 Q1016 GRN
12:32 am
M
59 °F 6¼ mi+ 1.300 ft 260° 260° 13 kt METAR EHLW 262232Z AUTO 26013KT 210V280 9999 DZRA FEW009 SCT011 BKN013 FEW015CB 15/13 Q1016 GRN
12:25 am
M
59 °F 6¼ mi+ 1.300 ft 260° 260° 14 kt METAR EHLW 262225Z AUTO 26014KT 220V290 9999 -RA FEW011 BKN013 FEW015CB BKN016 15/13 Q1016 RERA REDZ GRN
12:19 am
M
59 °F 6¼ mi+ 1.700 ft 260° 260° 14 kt METAR EHLW 262219Z AUTO 26014KT 230V290 9999 -RA FEW012 SCT014 FEW015CB BKN017 15/13 Q1016 GRN

26. Mai 2022

Uhrzeit Code Wetter Temp. Sichtweite Wolkendecke Wind METAR/SPECI
11:55 pm
M
59 °F 6¼ mi+ 1.500 ft 250° 250° 11 kt METAR EHLW 262155Z AUTO 25011KT 210V270 9999 -RADZ FEW013 BKN015CB 15/13 Q1016 WHT
11:37 pm
V
59 °F 6¼ mi+ 4.200 ft 250° 250° 13 kt METAR EHLW 262137Z AUTO 25013KT 220V280 9999 SCT016 SCT019 BKN042 15/13 Q1016 WHT
11:36 pm
V
59 °F 6¼ mi+ 4.200 ft 250° 250° 13 kt METAR EHLW 262136Z AUTO 25013KT 220V280 9999 FEW012 BKN042 BKN055 15/13 Q1016 BLU
11:25 pm
M
59 °F 6¼ mi+ 1.600 ft 250° 250° 15 kt METAR EHLW 262125Z AUTO 25015KT 210V290 9999 FEW014 BKN016 BKN020 15/13 Q1016 WHT
11:18 pm
V
59 °F 6¼ mi+ 3.000 ft 250° 250° 15 kt METAR EHLW 262118Z AUTO 25015KT 210V270 9999 FEW016 SCT019 BKN030 15/13 Q1016 WHT
10:55 pm
V
59 °F 6¼ mi+ 4.000 ft 240° 240° 15 kt METAR EHLW 262055Z AUTO 24015KT 210V270 9999 FEW010/// SCT033/// BKN040/// 15/13 Q1016 BLU RMK TS INFO NOT AVBL
10:43 pm
V
59 °F 6¼ mi+ 4.200 ft 250° 250° 15 kt METAR EHLW 262043Z AUTO 25015KT 210V270 9999 FEW012/// SCT017/// BKN042/// 15/13 Q1016 WHT RMK TS INFO NOT AVBL
10:25 pm
V
59 °F 6¼ mi+ 3.600 ft 250° 250° 15 kt METAR EHLW 262025Z AUTO 25015KT 210V270 9999 SCT032/// BKN036/// BKN047/// 15/13 Q1016 BLU RMK TS INFO NOT AVBL
9:55 pm
M
59 °F 6¼ mi+ 2.900 ft 250° 250° 19 kt METAR EHLW 261955Z AUTO 25019KT 210V270 9999 FEW009/// OVC029/// 15/13 Q1016 REDZ BLU RMK TS INFO NOT AVBL
9:36 pm
M
59 °F 6¼ mi+ 2.700 ft 250° 250° 18 kt METAR EHLW 261936Z AUTO 25018KT 210V280 9999 RADZ FEW016/// BKN027/// OVC034/// 15/13 Q1016 BLU RMK TS INFO NOT AVBL
9:25 pm
V
59 °F 5⅝ mi 3.100 ft 240° 240° 17 kt METAR EHLW 261925Z AUTO 24017KT 200V270 9000 DZRA FEW007/// SCT027/// BKN031/// 15/13 Q1016 BLU RMK TS INFO NOT AVBL
9:12 pm
M
59 °F 6¼ mi+ 2.700 ft 240° 240° 17 kt METAR EHLW 261912Z AUTO 24017KT 210V270 9999 -RA FEW016/// BKN027/// OVC031/// 15/13 Q1016 BLU RMK TS INFO NOT AVBL
8:59 pm
V
59 °F 5⅝ mi 3.100 ft 240° 240° 17 kt METAR EHLW 261859Z AUTO 24017KT 210V270 9000 +DZ FEW027/// BKN031/// OVC035/// 15/13 Q1016 BLU RMK TS INFO NOT AVBL
8:55 pm
M
59 °F 3¾ mi 3.600 ft 240° 240° 16 kt METAR EHLW 261855Z AUTO 24016KT 210V270 6000 +DZRA FEW024/// SCT032/// BKN036/// 15/13 Q1016 WHT RMK TS INFO NOT AVBL
8:39 pm
I
59 °F 2⅝ mi 2.900 ft 240° 240° 19 - 29 kt METAR EHLW 261839Z AUTO 24019G29KT 190V270 4300 -RA SCT026/// BKN029/// BKN035/// 15/13 Q1016 GRN RMK TS INFO NOT AVBL
8:26 pm
V
59 °F 6¼ mi+ 4.300 ft 240° 240° 18 kt METAR EHLW 261826Z AUTO 24018KT 210V270 9999 FEW014/// SCT031/// BKN043/// 15/13 Q1016 BLU RMK TS INFO NOT AVBL
8:25 pm
V
59 °F 6¼ mi+ 3.100 ft 240° 240° 17 kt METAR EHLW 261825Z AUTO 24017KT 210V270 9999 FEW014/// SCT016/// BKN031/// 15/13 Q1016 REDZ WHT RMK TS INFO NOT AVBL
8:15 pm
M
59 °F 6¼ mi+ 2.500 ft 240° 240° 16 kt METAR EHLW 261815Z AUTO 24016KT 210V270 9999 FEW014/// SCT017/// BKN025/// 15/13 Q1016 WHT RMK TS INFO NOT AVBL
8:03 pm
M
57 °F 6¼ mi+ 2.600 ft 240° 240° 16 kt METAR EHLW 261803Z AUTO 24016KT 9999 -DZ FEW006/// SCT017/// BKN026/// 14/13 Q1016 WHT RMK TS INFO NOT AVBL
8:00 pm
I
57 °F 3 mi 1.300 ft 240° 240° 16 kt METAR EHLW 261800Z AUTO 24016KT 220V280 4800 +DZ FEW006/// SCT010/// BKN013/// 14/13 Q1017 GRN RMK TS INFO NOT AVBL
7:55 pm
I
57 °F 1¾ mi 1.300 ft 240° 240° 16 kt METAR EHLW 261755Z AUTO 24016KT 210V280 2900 +DZ FEW006/// SCT010/// BKN013/// 14/13 Q1017 YLO RMK TS INFO NOT AVBL
7:41 pm
M
57 °F 3⅛ mi 1.100 ft 240° 240° 16 kt METAR EHLW 261741Z AUTO 24016KT 210V280 5000 +DZ FEW007/// BKN011/// BKN014/// 14/13 Q1017 GRN RMK TS INFO NOT AVBL
7:33 pm
I
57 °F 2⅜ mi 1.100 ft 240° 240° 16 kt METAR EHLW 261733Z AUTO 24016KT 210V280 3900 DZ FEW007/// BKN011/// BKN014/// 14/13 Q1017 GRN RMK TS INFO NOT AVBL
7:25 pm
I
57 °F 1⅞ mi 1.500 ft 240° 240° 16 kt METAR EHLW 261725Z AUTO 24016KT 210V270 3000 +DZ FEW009/// SCT012/// BKN015/// 14/13 Q1017 YLO RMK TS INFO NOT AVBL
7:13 pm
I
57 °F 2 mi 1.600 ft 240° 240° 19 kt METAR EHLW 261713Z AUTO 24019KT 210V280 3200 DZ SCT014/// OVC016/// 14/13 Q1017 YLO RMK TS INFO NOT AVBL
7:08 pm
I
59 °F 2⅜ mi 1.700 ft 240° 240° 19 kt METAR EHLW 261708Z AUTO 24019KT 210V270 3900 DZ SCT014/// BKN017/// OVC021/// 15/12 Q1017 GRN RMK TS INFO NOT AVBL
6:55 pm
M
59 °F 3¾ mi 2.100 ft 240° 240° 18 kt METAR EHLW 261655Z AUTO 24018KT 210V280 6000 -RADZ SCT017/// BKN021/// BKN025/// 15/12 Q1017 WHT RMK TS INFO NOT AVBL
6:43 pm
M
59 °F 3¾ mi 2.200 ft 240° 240° 21 kt METAR EHLW 261643Z AUTO 24021KT 200V260 6000 HZ SCT017/// BKN022/// OVC026/// 15/11 Q1017 WHT RMK TS INFO NOT AVBL
6:21 pm
M
59 °F 6¼ mi+ 2.900 ft 240° 240° 16 kt METAR EHLW 261621Z AUTO 24016KT 210V270 9999 SCT018/// BKN029/// OVC035/// 15/11 Q1017 WHT RMK TS INFO NOT AVBL
6:05 pm
V
61 °F 6¼ mi+ 3.000 ft 240° 240° 19 kt METAR EHLW 261605Z AUTO 24019KT 210V280 9999 FEW019/// SCT025/// BKN030/// 16/11 Q1017 BLU RMK TS INFO NOT AVBL
5:55 pm
M
59 °F 6¼ mi+ 1.800 ft 250° 250° 20 kt METAR EHLW 261555Z AUTO 25020KT 200V270 9999 BKN018/// BKN025/// BKN029/// 15/11 Q1017 WHT RMK TS INFO NOT AVBL
5:35 pm
V
59 °F 6¼ mi+ 4.500 ft 250° 250° 18 kt METAR EHLW 261535Z AUTO 25018KT 200V270 9999 FEW020/// SCT024/// OVC045/// 15/11 Q1018 WHT RMK TS INFO NOT AVBL
5:27 pm
V
61 °F 6¼ mi+ 4.600 ft 240° 240° 18 kt METAR EHLW 261527Z AUTO 24018KT 210V280 9999 FEW020/// OVC046/// 16/10 Q1018 BLU RMK TS INFO NOT AVBL
5:25 pm
M
59 °F 6¼ mi+ 2.200 ft 250° 250° 19 kt METAR EHLW 261525Z AUTO 25019KT 210V280 9999 SCT019/// BKN022/// BKN026/// 15/10 Q1018 WHT RMK TS INFO NOT AVBL
5:14 pm
V
59 °F 6¼ mi+ 4.900 ft 250° 250° 19 kt METAR EHLW 261514Z AUTO 25019KT 210V280 9999 SCT020/// SCT026/// OVC049/// 15/10 Q1018 WHT RMK TS INFO NOT AVBL
4:55 pm
V
59 °F 6¼ mi+ 4.900 ft 250° 250° 19 kt METAR EHLW 261455Z AUTO 25019KT 200V270 9999 FEW020/// BKN049/// OVC053/// 15/10 Q1018 BLU RMK TS INFO NOT AVBL
Ältere Daten

Laden Sie unsere App herunter

Einfacher Zugriff auf das gesamte Flugwetter auf Ihrem Mobiltelefon und Tablet.
Mit vielen Funktionen, die auf der Website nicht verfügbar sind, wie Offline-Unterstützung und eine persönliche Flughafenliste.

Wir und Dritte verfolgen dein Internetverhalten auf unserer Website mit Cookies. Wenn du fortfährst, gehen wir davon aus, dass du mit unserer Cookie-Richtlinie einverstanden bist. Mehr erfahren